Weather History for KSNS - June, 2013

Change the Weather History Date:

Monday, June 17, 2013

  Actual Average Record
Temperature  
Mean Temperature 62 °F 62 °F  
Max Temperature 69 °F 70 °F 96 °F (1957)
Min Temperature 54 °F 53 °F 41 °F (1939)
Degree Days  
Heating Degree Days 3 4  
Month to date heating degree days 74 72  
Since 1 June heating degree days 74 72  
Since 1 July heating degree days 2462 2645  
Cooling Degree Days 0 0  
Month to date cooling degree days 0 0  
Year to date cooling degree days 10 16  
Since 1 June cooling degree days 0 0  
Growing Degree Days 10 (Base 50)    
Moisture  
Dew Point 52 °F    
Average Humidity 73    
Maximum Humidity 93    
Minimum Humidity 53    
Precipitation  
Precipitation 0.00 in 0.00 in 0.02 in (1951)
Month to date precipitation 0.00 0.07  
Year to date precipitation 2.29 8.70  
Since 1 July precipitation 8.93  
Sea Level Pressure  
Sea Level Pressure 30.11 in    
Wind  
Wind Speed 11 mph (West)    
Max Wind Speed 18 mph    
Max Gust Speed 24 mph    
Visibility 10 miles    
Events      
T = Trace of Precipitation, MM = Missing Value Source: NWS Daily Summary

Daily Weather History Graph

Daily Weather History Graph

Search for Another Location

Airport or City:

Trip Planner

Search our weather history database for the weather conditions in past years. The results will help you decide how hot, cold, wet, or windy it might be!

Date:

Astronomy

Jun. 17, 2013 Rise Set
Actual Time 5:47 AM PDT 8:27 PM PDT
Civil Twilight 5:16 AM PDT 8:58 PM PDT
Nautical Twilight 4:38 AM PDT 9:36 PM PDT
Astronomical Twilight 3:55 AM PDT 10:19 PM PDT
Moon 2:19 PM PDT (6/17) 1:17 AM PDT (6/17)
Length of Visible Light 15h 41m
Length of Day
14h 40m
First Quarter, 61% of the Moon is Illuminated
Jun 17
First Quarter
Jun 23
Full
Jun 29
Last Quarter
Jul 8
New
Jul 15
First Quarter

Hourly Weather History & Observations

Time (PDT) Temp. Dew Point Humidity Pressure Visibility Wind Dir Wind Speed Gust Speed Precip Events Conditions
12:53 AM 57.0 °F 50.0 °F 77% 30.13 in 10.0 mi NW 9.2 mph - N/A   Clear
1:53 AM 55.9 °F 50.0 °F 80% 30.12 in 10.0 mi NW 8.1 mph - N/A   Clear
2:53 AM 55.0 °F 50.0 °F 83% 30.12 in 10.0 mi West 8.1 mph - N/A   Clear
3:44 AM 55.4 °F 50.0 °F 82% 30.09 in 10.0 mi West 10.4 mph - N/A   Partly Cloudy
3:53 AM 54.0 °F 51.1 °F 90% 30.12 in 10.0 mi West 9.2 mph - N/A   Partly Cloudy
4:53 AM 54.0 °F 50.0 °F 86% 30.12 in 10.0 mi West 4.6 mph - N/A   Clear
5:00 AM 53.6 °F 51.8 °F 94% 30.10 in 10.0 mi West 5.8 mph - N/A   Scattered Clouds
5:09 AM 53.6 °F 51.8 °F 94% 30.10 in 10.0 mi West 9.2 mph - N/A   Mostly Cloudy
5:53 AM 54.0 °F 51.1 °F 90% 30.13 in 10.0 mi WSW 9.2 mph - N/A   Overcast
6:53 AM 54.0 °F 51.1 °F 90% 30.14 in 10.0 mi West 6.9 mph - N/A   Overcast
7:53 AM 55.9 °F 51.1 °F 84% 30.13 in 10.0 mi WNW 9.2 mph - N/A   Overcast
8:19 AM 57.2 °F 51.8 °F 82% 30.10 in 10.0 mi NW 10.4 mph - N/A   Partly Cloudy
8:53 AM 60.1 °F 52.0 °F 75% 30.13 in 10.0 mi WNW 10.4 mph - N/A   Clear
9:53 AM 63.0 °F 52.0 °F 67% 30.12 in 10.0 mi West 10.4 mph - N/A   Clear
10:53 AM 66.0 °F 52.0 °F 60% 30.11 in 10.0 mi West 12.7 mph - N/A   Clear
11:53 AM 68.0 °F 50.0 °F 52% 30.13 in 10.0 mi WSW 15.0 mph - N/A   Clear
12:53 PM 66.9 °F 53.1 °F 61% 30.13 in 10.0 mi West 13.8 mph - N/A   Clear
1:53 PM 66.9 °F 53.1 °F 61% 30.14 in 10.0 mi WSW 15.0 mph - N/A   Clear
2:53 PM 68.0 °F 54.0 °F 61% 30.13 in 10.0 mi WSW 18.4 mph 24.2 mph N/A   Clear
3:53 PM 68.0 °F 54.0 °F 61% 30.12 in 10.0 mi WSW 15.0 mph 24.2 mph N/A   Clear
4:53 PM 68.0 °F 54.0 °F 61% 30.10 in 10.0 mi WSW 16.1 mph 21.9 mph N/A   Clear
5:53 PM 66.9 °F 54.0 °F 63% 30.09 in 10.0 mi SW 10.4 mph 19.6 mph N/A   Clear
6:53 PM 66.0 °F 53.1 °F 63% 30.09 in 10.0 mi WSW 12.7 mph - N/A   Clear
7:53 PM 63.0 °F 53.1 °F 70% 30.09 in 10.0 mi WSW 10.4 mph 17.3 mph N/A   Clear
8:53 PM 62.1 °F 53.1 °F 72% 30.09 in 10.0 mi WSW 11.5 mph - N/A   Clear
9:53 PM 61.0 °F 53.1 °F 75% 30.10 in 10.0 mi WSW 10.4 mph - N/A   Clear
10:53 PM 59.0 °F 53.1 °F 81% 30.10 in 10.0 mi West 8.1 mph - N/A   Clear
11:53 PM 57.9 °F 53.1 °F 84% 30.09 in 10.0 mi WNW 8.1 mph - N/A   Clear